Volver al catálogo

STARLINK-5324

ActivoComunicacionesVLEO
NORAD 55677·PAYLOAD·🇺🇸 United States

Lanzado Feb 17, 2023 desde Vandenberg Space Force Base

Loading…

Próximos Pases (próximas 24 horas)

TLE

ActualizadoSource: CelesTrak SupGP

Época: Sep 15, 2026, 02:20 UTC

1 55677C 23021BB  26258.09770833 -.00004510  00000+0 -37802-3 0  2580
2 55677  70.0032  26.8469 0003085 269.8948 326.2988 14.98326980    10

Sigue STARLINK-5324 en tiempo real con AllMySat

Download on the App Store